Fort Myers Airport, FL

12:09 AM EDT on June 29, 2017 (GMT -0400)
Southwest Florida International

Weather History for KRSW - May, 2013

Change the Weather History Date:

Friday, May 24, 2013

  Actual Average Record
Temperature  
Mean Temperature 82 °F -  
Max Temperature 91 °F 88 °F 95 °F (1953)
Min Temperature 72 °F 69 °F 60 °F (1941)
Cooling Degree Days 16    
Growing Degree Days 32 (Base 50)    
Moisture  
Dew Point 67 °F    
Average Humidity 68    
Maximum Humidity 93    
Minimum Humidity 36    
Precipitation  
Precipitation 0.00 in - - ()
Sea Level Pressure  
Sea Level Pressure 30.02 in    
Wind  
Wind Speed 5 mph (NNW)    
Max Wind Speed 12 mph    
Max Gust Speed 18 mph    
Visibility 10 miles    
Events      
Averages and records for this station are not official NWS values.
T = Trace of Precipitation, MM = Missing Value Source: NWS Daily Summary

Daily Weather History Graph

Daily Weather History Graph

Search for Another Location

Airport or City:

Trip Planner

Search our weather history database for the weather conditions in past years. The results will help you decide how hot, cold, wet, or windy it might be!

Date:

Astronomy

May. 24, 2013 Rise Set
Actual Time 6:35 AM EDT 8:12 PM EDT
Civil Twilight 6:10 AM EDT 8:37 PM EDT
Nautical Twilight 5:39 AM EDT 9:08 PM EDT
Astronomical Twilight 5:07 AM EDT 9:40 PM EDT
Moon 7:55 PM EDT (5/24) 6:02 AM EDT (5/24)
Length of Visible Light 14h 27m
Length of Day
13h 36m
Full, 100% of the Moon is Illuminated
May 24
Full
May 25
Full
May 31
Last Quarter
Jun 8
New
Jun 16
First Quarter

Hourly Weather History & Observations

Time (EDT) Temp. Heat Index Dew Point Humidity Pressure Visibility Wind Dir Wind Speed Gust Speed Precip Events Conditions
12:53 AM 75.0 °F - 71.1 °F 87% 30.00 in 10.0 mi WNW 3.5 mph - N/A   Clear
1:53 AM 73.9 °F - 72.0 °F 93% 29.99 in 10.0 mi Calm Calm - N/A   Clear
2:53 AM 73.9 °F - 72.0 °F 93% 29.98 in 10.0 mi North 3.5 mph - N/A   Clear
3:53 AM 73.0 °F - 71.1 °F 93% 29.98 in 10.0 mi North 4.6 mph - N/A   Clear
4:53 AM 73.0 °F - 71.1 °F 93% 29.99 in 10.0 mi North 3.5 mph - N/A   Clear
5:53 AM 72.0 °F - 70.0 °F 93% 30.00 in 10.0 mi North 4.6 mph - N/A   Clear
6:53 AM 72.0 °F - 70.0 °F 93% 30.01 in 9.0 mi North 4.6 mph - N/A   Clear
7:53 AM 73.9 °F - 71.1 °F 91% 30.03 in 10.0 mi North 5.8 mph - N/A   Clear
8:53 AM 78.1 °F - 71.1 °F 79% 30.05 in 10.0 mi North 5.8 mph - N/A   Clear
9:53 AM 81.0 °F 83.8 °F 68.0 °F 65% 30.06 in 10.0 mi North 8.1 mph - N/A   Clear
10:53 AM 84.0 °F 87.0 °F 68.0 °F 58% 30.06 in 10.0 mi North 5.8 mph - N/A   Clear
11:53 AM 86.0 °F 88.8 °F 66.9 °F 53% 30.06 in 10.0 mi NNW 4.6 mph - N/A   Clear
12:53 PM 88.0 °F 89.3 °F 64.0 °F 45% 30.04 in 10.0 mi NW 5.8 mph - N/A   Clear
1:53 PM 91.0 °F 91.5 °F 62.1 °F 38% 30.03 in 10.0 mi NNW 6.9 mph - N/A   Partly Cloudy
2:53 PM 91.0 °F 90.9 °F 61.0 °F 36% 30.03 in 10.0 mi North 10.4 mph - N/A   Clear
3:53 PM 90.0 °F 90.6 °F 63.0 °F 40% 30.01 in 10.0 mi Variable 3.5 mph - N/A   Mostly Cloudy
4:53 PM 89.1 °F 94.1 °F 70.0 °F 53% 30.00 in 10.0 mi WNW 10.4 mph 18.4 mph N/A   Mostly Cloudy
5:53 PM 88.0 °F 90.7 °F 66.9 °F 49% 30.00 in 10.0 mi NW 11.5 mph 17.3 mph N/A   Clear
6:53 PM 86.0 °F 88.2 °F 66.0 °F 51% 30.01 in 10.0 mi NW 9.2 mph 18.4 mph N/A   Clear
7:53 PM 81.0 °F 82.2 °F 63.0 °F 54% 30.01 in 10.0 mi NW 4.6 mph - N/A   Clear
8:53 PM 79.0 °F - 64.0 °F 60% 30.04 in 10.0 mi ESE 6.9 mph - N/A   Partly Cloudy
9:53 PM 77.0 °F - 64.0 °F 64% 30.06 in 10.0 mi SSE 4.6 mph - N/A   Clear
10:53 PM 75.9 °F - 64.9 °F 69% 30.07 in 10.0 mi Calm Calm - N/A   Clear
11:53 PM 72.0 °F - 64.9 °F 78% 30.08 in 10.0 mi ENE 5.8 mph - N/A   Clear